TimeCDT,TemperatureF,Dew PointF,Humidity,Sea Level PressureIn,VisibilityMPH,Wind Direction,Wind SpeedMPH,Gust SpeedMPH,PrecipitationIn,Events,Conditions,WindDirDegrees,DateUTC
12:53 AM,73.0,71.1,93,30.27,10.0,SE,3.5,-,N/A,,Clear,130,2013-07-17 05:53:00
1:53 AM,73.0,71.1,93,30.25,10.0,Calm,Calm,-,N/A,,Clear,0,2013-07-17 06:53:00
2:53 AM,73.0,71.1,93,30.26,10.0,Calm,Calm,-,N/A,,Clear,0,2013-07-17 07:53:00
3:53 AM,73.0,71.1,93,30.26,9.0,Calm,Calm,-,N/A,,Clear,0,2013-07-17 08:53:00
4:53 AM,72.0,71.1,97,30.27,4.0,Calm,Calm,-,N/A,,Clear,0,2013-07-17 09:53:00
5:10 AM,71.6,71.6,100,30.28,1.5,Calm,Calm,-,N/A,,Clear,0,2013-07-17 10:10:00
5:23 AM,71.6,71.6,100,30.29,3.0,Calm,Calm,-,N/A,,Clear,0,2013-07-17 10:23:00
5:53 AM,72.0,71.1,97,30.28,4.0,North,-9999.0,-,N/A,,Clear,0,2013-07-17 10:53:00
6:53 AM,75.9,72.0,87,30.30,9.0,Calm,Calm,-,N/A,,Clear,0,2013-07-17 11:53:00
7:53 AM,81.0,73.9,79,30.31,10.0,ENE,3.5,-,N/A,,Clear,60,2013-07-17 12:53:00
8:53 AM,84.9,75.0,72,30.31,10.0,Calm,Calm,-,N/A,,Clear,0,2013-07-17 13:53:00
9:53 AM,88.0,73.9,63,30.30,10.0,East,17.3,43.7,N/A,,Clear,80,2013-07-17 14:53:00
10:04 AM,87.8,73.4,62,30.32,10.0,Calm,Calm,-,N/A,,Clear,0,2013-07-17 15:04:00
10:53 AM,90.0,73.9,59,30.30,10.0,ENE,4.6,-,N/A,,Clear,70,2013-07-17 15:53:00
11:53 AM,91.0,72.0,53,30.29,10.0,ENE,5.8,-,N/A,,Scattered Clouds,60,2013-07-17 16:53:00
12:53 PM,91.9,73.0,54,30.27,10.0,Variable,6.9,-,N/A,,Scattered Clouds,0,2013-07-17 17:53:00
1:53 PM,91.0,72.0,53,30.26,10.0,ENE,6.9,-,N/A,,Scattered Clouds,70,2013-07-17 18:53:00
2:53 PM,93.0,71.1,49,30.24,10.0,Variable,3.5,-,N/A,,Clear,0,2013-07-17 19:53:00
3:53 PM,93.0,71.1,49,30.21,10.0,Variable,4.6,-,N/A,,Clear,0,2013-07-17 20:53:00
4:53 PM,93.9,71.1,47,30.19,10.0,NE,4.6,-,N/A,,Clear,40,2013-07-17 21:53:00
5:53 PM,91.9,71.1,50,30.18,10.0,NE,4.6,-,N/A,,Clear,50,2013-07-17 22:53:00
6:53 PM,91.0,71.1,52,30.17,10.0,NE,5.8,-,N/A,,Clear,40,2013-07-17 23:53:00
7:53 PM,88.0,71.1,57,30.17,10.0,NE,3.5,-,N/A,,Clear,50,2013-07-18 00:53:00
8:53 PM,80.1,72.0,76,30.18,10.0,ESE,3.5,-,N/A,,Clear,120,2013-07-18 01:53:00
9:53 PM,79.0,73.0,82,30.19,9.0,Calm,Calm,-,N/A,,Clear,0,2013-07-18 02:53:00
10:53 PM,78.1,73.0,84,30.19,8.0,Calm,Calm,-,N/A,,Clear,0,2013-07-18 03:53:00
11:53 PM,75.0,72.0,90,30.19,6.0,WSW,3.5,-,N/A,,Clear,250,2013-07-18 04:53:00